Wind_Speed
2 5 9 7 3 3 1 4 9 14 6 5 8 12 13 14 16 17 20 24 26 29 26 26 30 28 27 28 26 26 26 25 24 22 21 20 19 17 15 13 11 8 5 6
4 8 7 3 2 5 2 7 10 13 7 6 6 12 10 14 21 25 25 25 28 23 23 26 27 27 30 29 29 28 27 28 27 25 22 19 18 16 13 11 13 10 9 8
5 3 0 5 6 6 4 7 7 6 8 4 8 10 3 5 15 19 21 25 26 29 28 28 30 31 30 31 31 30 28 28 26 26 25 22 19 18 15 15 16 14 11 9
4 1 3 4 6 6 9 4 5 6 3 3 4 5 7 1 1 11 21 27 27 29 28 26 31 33 33 33 32 31 29 27 25 26 26 24 21 20 18 12 14 14 14 13
1 2 4 6 7 7 6 2 1 2 1 4 1 4 5 7 7 8 14 26 31 31 31 32 35 35 32 33 32 31 31 30 28 27 26 25 24 22 17 14 13 15 14 15
4 2 3 2 4 4 1 2 3 3 1 3 2 4 7 4 9 12 8 16 29 31 32 31 33 31 31 28 31 31 31 30 29 30 29 27 24 23 21 15 13 15 17 17
3 2 3 2 3 2 1 1 3 6 3 5 3 3 9 5 10 12 15 10 23 29 29 30 30 32 34 33 31 31 31 31 31 29 31 29 26 23 19 15 14 16 16 18
2 4 4 5 3 3 3 3 4 7 8 5 1 4 3 1 13 18 13 5 14 23 24 27 31 35 37 35 32 30 30 27 29 29 30 28 27 24 22 19 16 16 17 17
2 2 2 1 2 1 2 2 2 3 0 3 0 4 9 7 14 20 14 3 11 21 25 26 26 28 33 33 31 29 28 28 28 28 29 28 27 27 25 22 19 17 15 16
2 2 2 4 2 4 1 5 3 1 3 5 3 3 4 13 16 15 14 11 2 11 17 21 25 29 31 32 32 29 28 26 25 27 28 30 26 26 25 24 23 21 18 18
2 2 1 3 4 5 1 1 4 2 2 3 4 2 1 8 9 12 12 11 7 4 12 16 19 23 26 29 32 31 29 28 27 28 28 30 29 27 26 26 24 23 22 22
1 1 3 2 2 4 3 3 1 3 4 0 3 1 4 3 5 7 10 11 8 3 5 10 16 21 22 26 28 29 31 29 26 27 26 27 30 30 29 27 27 26 26 24
3 1 4 1 4 3 2 2 1 1 1 3 3 2 4 4 5 9 8 9 9 9 1 4 7 12 14 15 21 24 28 30 31 28 28 28 30 31 31 30 29 29 29 28
4 3 4 4 3 2 5 4 1 2 3 1 6 8 2 5 4 6 7 9 12 16 14 9 4 2 7 10 13 14 18 23 30 34 31 30 29 29 28 30 31 32 32 32
2 3 4 7 7 5 8 10 8 8 8 6 5 6 7 4 1 3 2 6 13 16 16 15 10 7 4 2 5 3 7 11 15 25 35 35 33 33 31 33 32 33 35 35
1 3 3 6 10 10 13 15 15 14 9 9 12 14 2 3 4 5 2 6 11 12 13 16 13 11 10 9 7 4 3 5 12 17 24 31 37 35 35 36 39 36 35 38
3 4 4 5 0 3 8 16 17 15 13 10 11 8 4 6 7 6 3 4 5 6 10 14 15 14 10 4 4 3 2 4 6 9 17 25 32 38 39 38 33 36 36 39
6 4 3 3 2 5 1 3 4 8 6 10 8 7 8 5 5 6 7 7 4 5 8 10 11 13 13 13 13 13 13 14 15 9 13 18 29 36 39 41 45 47 48 46
8 5 3 3 6 5 2 3 1 3 6 8 7 5 9 5 5 10 8 7 5 6 6 7 7 6 8 9 11 13 15 17 16 15 15 15 16 23 33 39 43 42 41 42
5 1 4 3 4 5 2 3 3 2 6 5 9 6 8 6 5 1 3 5 5 6 5 4 1 1 5 8 9 10 11 13 14 15 18 21 20 17 15 19 24 29 35 38
3 3 8 6 5 5 2 4 3 6 2 7 4 4 7 8 7 3 10 9 8 8 6 6 5 5 5 6 7 8 10 13 15 16 19 22 23 21 18 17 20 27 30 36
2 3 3 3 4 5 3 2 4 4 4 4 2 2 3 7 12 15 17 18 15 12 11 10 9 9 8 11 13 14 14 15 16 18 20 20 25 27 21 17 22 22 26 29
3 2 1 5 2 2 5 6 4 3 4 5 5 5 7 9 10 12 13 15 16 16 14 12 13 15 12 12 14 15 15 17 18 18 20 20 20 27 29 17 12 16 22 21
2 2 3 2 2 6 10 11 9 9 15 13 11 12 11 12 12 13 14 13 13 15 16 17 17 15 17 16 16 15 16 17 19 20 21 20 20 23 22 21 12 16 21 20
3 3 4 8 16 10 14 15 16 24 18 15 20 18 18 17 20 20 22 20 19 19 18 18 18 19 19 18 17 17 17 18 19 20 19 20 23 19 18 17 15 17 24 25
7 7 5 7 17 10 16 21 21 17 21 26 21 23 19 21 21 18 23 25 26 25 22 21 19 18 17 17 18 18 20 22 23 23 21 22 22 18 18 18 18 16 18 20
Wind_Direction
195 234 239 261 247 292 208 284 297 300 282 233 240 271 269 200 199 195 200 194 199 203 201 203 205 208 213 217 217 216 218 219 217 218 222 225 232 234 233 232 235 237 211 217
172 239 263 271 209 242 250 307 304 303 320 231 294 285 278 199 210 203 198 202 205 202 198 205 207 208 213 215 217 219 221 224 223 224 226 231 234 235 236 235 227 234 227 226
225 242 31 239 250 231 256 271 301 305 321 229 315 294 282 226 224 215 212 213 209 201 197 198 202 208 211 218 219 220 223 226 227 227 228 232 238 235 236 236 226 229 229 217
247 306 231 216 257 221 272 259 279 276 291 323 354 298 309 24 225 217 213 216 216 208 204 200 199 206 213 216 223 227 228 229 231 232 231 236 241 238 240 247 232 231 231 212
141 227 231 246 249 200 259 100 85 87 196 282 151 256 291 8 16 338 229 214 215 213 207 201 204 204 212 222 227 228 230 232 234 235 237 237 239 238 243 245 232 222 214 228
275 294 260 313 322 235 31 114 73 91 164 263 44 275 300 22 335 328 314 227 212 210 211 212 210 211 211 220 231 236 238 238 237 239 239 238 237 234 235 234 230 224 231 227
333 263 300 317 306 93 147 255 245 253 247 275 30 238 278 309 331 327 315 277 211 207 208 211 211 213 218 218 225 233 238 242 240 236 234 235 232 229 228 229 228 224 224 216
16 135 11 3 13 323 4 288 247 245 236 255 28 228 256 282 322 325 329 294 191 203 206 209 213 214 218 221 225 231 234 236 239 233 225 229 228 224 223 225 227 226 230 226
167 173 316 236 4 253 123 217 26 129 171 258 177 264 276 346 1 2 1 44 175 194 202 209 211 220 222 225 226 228 232 232 234 234 226 227 227 223 223 222 223 226 224 221
121 237 39 329 232 93 15 121 221 194 213 230 195 269 298 343 344 346 5 3 219 210 207 214 214 219 224 228 232 234 236 237 238 233 228 228 230 226 225 225 226 223 224 222
122 312 36 281 22 353 81 162 65 109 291 245 231 198 110 320 333 328 348 345 333 271 233 224 224 223 227 230 228 227 232 234 233 232 232 229 231 230 227 227 229 229 228 228
34 54 313 320 310 301 308 356 328 269 177 223 318 199 42 347 349 341 339 349 345 330 231 229 236 233 231 230 231 228 225 228 230 230 232 234 235 233 231 231 232 232 232 231
165 7 310 203 156 191 311 357 67 114 200 204 242 130 170 42 29 7 1 8 31 43 90 250 228 228 236 239 244 243 239 235 234 233 232 232 234 236 235 236 235 235 235 236
147 155 247 285 312 316 265 263 226 295 263 179 254 293 278 23 33 52 62 41 50 58 61 69 71 208 231 227 245 245 244 242 236 237 238 240 240 241 243 244 242 242 241 239
261 234 207 253 249 242 260 264 252 245 271 255 305 272 305 338 229 144 350 36 52 60 66 74 76 90 91 92 231 213 240 238 234 240 248 250 252 250 248 245 246 246 245 244
3 273 200 259 255 242 258 260 258 257 256 253 271 276 250 258 239 243 243 22 33 56 70 84 85 91 109 124 94 73 22 303 259 241 252 255 258 260 255 260 251 243 250 248
258 206 197 267 347 285 258 248 243 242 252 251 253 274 198 210 209 221 257 354 5 68 78 92 101 112 124 115 81 19 27 195 247 279 266 270 272 271 267 258 255 247 249 253
217 190 204 273 239 244 19 217 270 222 252 220 255 249 223 232 210 232 246 263 267 130 112 108 102 97 86 72 59 45 37 31 21 349 283 267 262 264 264 267 265 266 267 263
211 173 181 237 221 310 229 132 172 221 212 223 236 207 211 233 281 271 251 240 213 182 155 131 123 107 83 63 50 33 26 22 15 3 343 323 293 269 260 260 264 270 269 265
148 102 227 166 246 245 69 42 11 202 254 325 232 209 191 185 231 214 273 242 224 206 194 188 164 18 39 30 33 29 23 25 16 4 359 352 332 309 285 274 276 275 269 265
149 159 218 215 251 278 252 327 146 212 300 348 316 263 210 218 258 288 332 301 259 250 258 275 294 327 345 351 357 359 0 358 356 358 356 351 347 331 304 291 283 279 275 261
249 201 197 177 224 258 28 195 248 355 349 326 335 10 306 290 294 294 293 295 278 264 262 263 266 276 298 310 313 324 334 337 335 330 336 343 339 339 327 288 282 275 274 269
239 246 340 233 297 299 290 285 293 315 311 301 300 299 304 299 305 308 302 289 273 270 273 276 278 282 294 300 305 310 315 314 318 320 323 329 333 332 326 305 283 280 268 258
197 179 249 284 240 251 282 270 269 307 296 276 284 294 294 291 296 297 296 296 286 268 265 268 273 277 282 284 288 292 298 300 302 307 315 318 322 323 316 310 281 265 246 239
265 193 245 260 281 278 277 287 297 304 282 278 285 285 281 282 287 290 291 290 288 283 274 266 262 269 273 281 287 297 303 303 301 295 297 303 308 309 308 305 288 255 249 257
204 237 229 269 281 274 283 302 306 293 285 290 281 273 276 279 278 284 282 281 282 277 269 263 262 265 274 285 296 306 310 312 310 302 290 288 289 294 303 301 284 265 264 252
Height
1509 1508 1506 1500 1503 1505 1506 1508 1505 1489 1488 1492 1491 1489 1487 1495 1497 1498 1500 1502 1505 1506 1513 1519 1524 1529 1533 1537 1541 1544 1547 1550 1554 1556 1559 1561 1563 1566 1568 1570 1571 1572 1573 1574
1510 1508 1499 1502 1503 1502 1503 1503 1499 1490 1486 1491 1488 1486 1481 1486 1486 1489 1493 1497 1499 1506 1510 1514 1519 1524 1528 1532 1536 1540 1543 1547 1550 1553 1556 1558 1560 1563 1565 1566 1568 1570 1571 1572
1508 1502 1502 1501 1499 1502 1498 1500 1498 1502 1489 1488 1489 1482 1480 1479 1482 1487 1492 1494 1497 1499 1503 1508 1513 1518 1523 1526 1530 1534 1538 1542 1546 1550 1553 1555 1557 1559 1562 1563 1565 1567 1569 1571
1503 1501 1501 1501 1499 1496 1501 1491 1496 1499 1498 1506 1493 1505 1478 1476 1481 1483 1486 1490 1493 1496 1500 1504 1508 1513 1517 1520 1525 1530 1534 1537 1542 1545 1548 1551 1554 1556 1558 1561 1562 1564 1566 1569
1502 1499 1500 1500 1493 1492 1491 1491 1496 1497 1499 1499 1501 1502 1478 1477 1477 1475 1477 1481 1485 1491 1495 1497 1501 1505 1512 1517 1520 1524 1529 1533 1536 1540 1543 1546 1550 1553 1555 1558 1559 1561 1563 1566
1500 1499 1498 1494 1492 1493 1493 1493 1498 1501 1501 1507 1503 1499 1483 1482 1482 1475 1473 1473 1478 1482 1488 1494 1496 1503 1507 1512 1516 1519 1523 1527 1532 1535 1538 1542 1545 1549 1552 1554 1555 1557 1560 1562
1501 1497 1496 1496 1494 1493 1493 1495 1507 1513 1512 1510 1504 1503 1482 1477 1475 1474 1469 1467 1470 1475 1481 1487 1494 1497 1501 1505 1510 1514 1517 1520 1525 1529 1533 1537 1541 1545 1548 1551 1552 1554 1557 1558
1510 1512 1496 1495 1496 1498 1498 1496 1503 1525 1517 1503 1509 1501 1478 1476 1476 1473 1468 1463 1467 1473 1478 1481 1486 1490 1495 1500 1505 1509 1513 1517 1520 1524 1529 1534 1538 1542 1545 1547 1549 1551 1553 1556
1509 1508 1496 1496 1496 1498 1501 1502 1502 1509 1522 1510 1503 1492 1474 1473 1472 1471 1468 1466 1466 1467 1471 1475 1481 1487 1490 1497 1500 1504 1508 1513 1517 1521 1526 1530 1534 1538 1540 1543 1545 1548 1550 1552
1505 1510 1499 1495 1496 1497 1494 1502 1503 1506 1520 1519 1504 1503 1490 1479 1477 1474 1470 1468 1468 1468 1469 1472 1475 1479 1484 1491 1496 1501 1504 1508 1513 1517 1521 1525 1529 1533 1536 1539 1541 1543 1545 1548
1505 1506 1504 1500 1501 1505 1498 1498 1508 1505 1510 1506 1507 1494 1482 1485 1485 1480 1475 1473 1470 1469 1469 1470 1472 1475 1478 1483 1488 1494 1498 1502 1507 1512 1516 1519 1523 1528 1531 1533 1536 1539 1542 1544
1509 1507 1511 1509 1504 1506 1503 1502 1501 1501 1511 1514 1511 1491 1485 1486 1485 1483 1479 1474 1469 1466 1465 1467 1469 1472 1474 1478 1483 1488 1493 1496 1501 1506 1510 1514 1518 1521 1524 1527 1530 1533 1536 1539
1506 1512 1516 1510 1506 1503 1502 1501 1505 1504 1504 1508 1502 1489 1485 1485 1484 1482 1479 1476 1470 1467 1466 1467 1469 1471 1477 1483 1484 1487 1491 1496 1500 1503 1506 1509 1511 1514 1516 1519 1523 1526 1530 1535
1505 1511 1509 1517 1509 1504 1505 1500 1501 1498 1500 1500 1495 1486 1479 1482 1483 1483 1482 1480 1475 1470 1468 1468 1470 1473 1477 1478 1480 1483 1487 1490 1495 1498 1502 1504 1506 1508 1510 1513 1517 1520 1524 1527
1503 1508 1511 1506 1507 1508 1504 1500 1496 1497 1492 1500 1486 1490 1480 1482 1483 1483 1483 1482 1478 1475 1474 1472 1474 1476 1476 1474 1478 1480 1484 1485 1488 1492 1495 1499 1502 1503 1504 1506 1509 1513 1517 1520
1507 1509 1513 1508 1501 1505 1505 1497 1494 1492 1491 1493 1489 1487 1481 1482 1484 1484 1483 1483 1482 1479 1478 1476 1477 1478 1479 1482 1478 1481 1485 1487 1487 1484 1486 1491 1493 1496 1498 1499 1502 1504 1508 1511
1507 1507 1514 1509 1509 1507 1506 1489 1487 1485 1483 1482 1487 1477 1479 1480 1480 1481 1482 1481 1482 1482 1482 1481 1480 1482 1483 1482 1481 1482 1484 1483 1487 1485 1484 1484 1485 1486 1488 1491 1494 1495 1498 1500
1505 1509 1511 1507 1509 1515 1479 1482 1482 1481 1479 1478 1478 1478 1477 1477 1478 1479 1479 1479 1480 1481 1483 1484 1483 1484 1484 1483 1482 1482 1482 1481 1475 1478 1483 1481 1481 1479 1479 1480 1482 1485 1488 1490
1503 1503 1509 1508 1503 1490 1479 1481 1481 1479 1476 1473 1474 1476 1477 1478 1478 1475 1475 1476 1477 1479 1482 1482 1483 1483 1483 1483 1481 1480 1479 1478 1478 1480 1479 1476 1475 1473 1473 1473 1473 1476 1479 1481
1507 1505 1502 1512 1507 1502 1483 1481 1482 1481 1483 1473 1474 1475 1477 1479 1477 1472 1474 1476 1477 1478 1479 1480 1481 1482 1481 1481 1481 1480 1480 1479 1479 1478 1476 1472 1468 1467 1465 1465 1466 1469 1471 1473
1503 1507 1504 1503 1500 1487 1481 1482 1482 1490 1483 1477 1477 1477 1477 1477 1476 1475 1475 1475 1475 1476 1477 1477 1477 1479 1479 1479 1480 1480 1480 1479 1477 1474 1470 1468 1467 1464 1461 1461 1461 1462 1464 1465
1498 1499 1499 1505 1504 1501 1482 1482 1485 1481 1479 1478 1478 1477 1476 1476 1475 1474 1474 1473 1473 1473 1474 1473 1474 1475 1474 1473 1473 1473 1472 1471 1470 1469 1468 1466 1464 1462 1460 1457 1455 1458 1457 1458
1499 1493 1493 1495 1487 1484 1483 1483 1482 1481 1480 1479 1478 1477 1476 1474 1473 1472 1471 1471 1471 1471 1471 1470 1470 1469 1470 1471 1470 1470 1469 1468 1467 1467 1465 1463 1460 1458 1455 1453 1453 1452 1452 1454
1493 1496 1493 1492 1483 1484 1483 1483 1481 1481 1481 1479 1477 1475 1474 1473 1472 1470 1469 1468 1468 1467 1467 1466 1466 1467 1468 1467 1467 1467 1465 1463 1462 1462 1461 1458 1457 1455 1453 1450 1448 1448 1449 1450
1492 1494 1489 1488 1483 1483 1480 1481 1480 1477 1475 1474 1473 1472 1471 1469 1467 1466 1465 1464 1464 1463 1463 1463 1462 1462 1462 1462 1462 1462 1460 1458 1456 1455 1454 1454 1453 1451 1449 1446 1444 1445 1444 1444
1487 1484 1485 1480 1478 1479 1477 1476 1475 1473 1471 1469 1468 1466 1465 1464 1462 1462 1461 1460 1458 1457 1457 1457 1457 1458 1458 1458 1457 1457 1455 1453 1451 1449 1447 1447 1446 1445 1444 1442 1439 1438 1436 1436